DAL5047 KBWI-KORD

Flight info

Callsign DAL5047
Flight time N/A
Altitude 38000
Route FOXHL1 RAMAY Q72 HACKS J149 ROD WATSN4
Aircraft B739/M-SDE2E3FGHIRWXY/LB1

Departure

Time 2026-04-30 14:21
Airport Baltimore/Washington International Thurgood Marshall Airport (KBWI)

Arrival

Time N/A
Airport Chicago O'Hare International Airport (KORD)
Time Latitude Longitude Altitude Speed Heading
2026-04-30 13:38 39.17828 -76.66451 155 ft 0 kts 11°
2026-04-30 13:56 39.17827 -76.66451 155 ft 0 kts 11°
2026-04-30 13:59 39.17820 -76.66453 155 ft 4 kts 11°
2026-04-30 13:59 39.17793 -76.66459 155 ft 4 kts 11°
2026-04-30 14:00 39.17769 -76.66470 155 ft 4 kts 40°
2026-04-30 14:00 39.17759 -76.66506 155 ft 1 kts 121°
2026-04-30 14:09 39.17760 -76.66506 155 ft 0 kts 121°
2026-04-30 14:16 39.17756 -76.66498 155 ft 5 kts 122°
2026-04-30 14:16 39.17730 -76.66421 155 ft 11 kts 100°
2026-04-30 14:16 39.17763 -76.66334 154 ft 11 kts 56°
2026-04-30 14:17 39.17752 -76.66241 154 ft 11 kts 120°
2026-04-30 14:17 39.17702 -76.66115 150 ft 18 kts 117°
2026-04-30 14:17 39.17647 -76.65954 146 ft 20 kts 114°
2026-04-30 14:17 39.17597 -76.65825 144 ft 11 kts 119°
2026-04-30 14:18 39.17561 -76.65738 143 ft 11 kts 119°
2026-04-30 14:18 39.17479 -76.65659 142 ft 8 kts 180°
2026-04-30 14:18 39.17377 -76.65526 140 ft 0 kts 174°
2026-04-30 14:19 39.17343 -76.65526 140 ft 17 kts 180°
2026-04-30 14:20 39.17285 -76.65604 140 ft 13 kts 267°
2026-04-30 14:20 39.17285 -76.65638 140 ft 0 kts 274°
2026-04-30 14:20 39.17285 -76.65637 140 ft 0 kts 274°
2026-04-30 14:21 39.17302 -76.65908 143 ft 73 kts 274°
2026-04-30 14:21 39.17357 -76.66906 154 ft 147 kts 276°
2026-04-30 14:21 39.17412 -76.70171 1389 ft 195 kts 272°
2026-04-30 14:22 39.17481 -76.71877 2520 ft 194 kts 278°
2026-04-30 14:22 39.17790 -76.75657 3420 ft 221 kts 283°
2026-04-30 14:22 39.18151 -76.77606 4039 ft 226 kts 285°
2026-04-30 14:23 39.18979 -76.81639 5201 ft 249 kts 284°
2026-04-30 14:23 39.19868 -76.86077 6813 ft 257 kts 283°
2026-04-30 14:24 39.20751 -76.90579 8525 ft 258 kts 283°
2026-04-30 14:24 39.21185 -76.92809 9509 ft 256 kts 282°
2026-04-30 14:25 39.22034 -76.97408 10605 ft 279 kts 275°
2026-04-30 14:25 39.22107 -77.02740 11031 ft 318 kts 269°
2026-04-30 14:26 39.22165 -77.08418 12411 ft 326 kts 269°
2026-04-30 14:26 39.22115 -77.11407 12678 ft 338 kts 261°
2026-04-30 14:26 39.20088 -77.16884 13834 ft 346 kts 232°
2026-04-30 14:27 39.18423 -77.19129 14368 ft 349 kts 229°
2026-04-30 14:27 39.16695 -77.21348 14846 ft 352 kts 229°
2026-04-30 14:27 39.14958 -77.23580 15334 ft 355 kts 229°
2026-04-30 14:28 39.11455 -77.28144 16228 ft 360 kts 230°
2026-04-30 14:28 39.09699 -77.30454 16709 ft 361 kts 230°
2026-04-30 14:28 39.07946 -77.32762 17222 ft 362 kts 230°
2026-04-30 14:28 39.06211 -77.35126 17651 ft 363 kts 235°
2026-04-30 14:29 39.04247 -77.41013 18450 ft 363 kts 260°
2026-04-30 14:29 39.03594 -77.47488 19236 ft 367 kts 262°
2026-04-30 14:30 39.02684 -77.57335 20308 ft 372 kts 262°
2026-04-30 14:31 39.02032 -77.63992 20920 ft 379 kts 262°
2026-04-30 14:31 39.01357 -77.70730 21579 ft 382 kts 262°
2026-04-30 14:31 39.01013 -77.74128 21861 ft 384 kts 262°
2026-04-30 14:32 39.00316 -77.80970 22455 ft 388 kts 262°
2026-04-30 14:32 38.99964 -77.84416 22738 ft 390 kts 262°
2026-04-30 14:32 38.99610 -77.87872 23023 ft 391 kts 262°
2026-04-30 14:33 38.99252 -77.91351 23285 ft 393 kts 262°
2026-04-30 14:33 38.98529 -77.98354 23747 ft 397 kts 262°
2026-04-30 14:33 38.98165 -78.01875 23974 ft 399 kts 262°
2026-04-30 14:34 38.97797 -78.05410 24237 ft 399 kts 262°
2026-04-30 14:34 38.97428 -78.08950 24529 ft 399 kts 262°
2026-04-30 14:34 38.97059 -78.12482 24790 ft 399 kts 262°
2026-04-30 14:34 38.96688 -78.16021 25040 ft 400 kts 262°
2026-04-30 14:35 38.96086 -78.23133 25463 ft 403 kts 270°
2026-04-30 14:35 38.96283 -78.26734 25694 ft 405 kts 273°
2026-04-30 14:35 38.96549 -78.30289 25930 ft 405 kts 273°
2026-04-30 14:36 38.96828 -78.33933 26150 ft 405 kts 273°
2026-04-30 14:36 38.97092 -78.37498 26340 ft 406 kts 273°
2026-04-30 14:36 38.97345 -78.41115 26521 ft 407 kts 272°
2026-04-30 14:36 38.97592 -78.44791 26717 ft 408 kts 272°
2026-04-30 14:37 38.97825 -78.48376 26913 ft 408 kts 272°
2026-04-30 14:37 38.98058 -78.52019 27107 ft 409 kts 272°
2026-04-30 14:37 38.98287 -78.55657 27373 ft 408 kts 272°
2026-04-30 14:37 38.98513 -78.59276 27717 ft 405 kts 272°
2026-04-30 14:38 38.98737 -78.62875 28074 ft 403 kts 272°
2026-04-30 14:38 38.98959 -78.66460 28390 ft 402 kts 272°
2026-04-30 14:38 38.99179 -78.70032 28719 ft 400 kts 272°
2026-04-30 14:38 38.99397 -78.73588 29016 ft 399 kts 272°
2026-04-30 14:39 38.99614 -78.77147 29332 ft 398 kts 272°
2026-04-30 14:39 38.99828 -78.80678 29706 ft 395 kts 272°
2026-04-30 14:39 39.00044 -78.84235 30084 ft 393 kts 272°
2026-04-30 14:40 39.00460 -78.91187 30475 ft 394 kts 272°
2026-04-30 14:40 39.00667 -78.94689 30750 ft 392 kts 272°
2026-04-30 14:40 39.00873 -78.98176 30984 ft 391 kts 272°
2026-04-30 14:40 39.01079 -79.01659 31228 ft 390 kts 272°
2026-04-30 14:41 39.01283 -79.05131 31459 ft 389 kts 272°
2026-04-30 14:41 39.01486 -79.08600 31689 ft 388 kts 272°
2026-04-30 14:41 39.01687 -79.12054 31928 ft 388 kts 272°
2026-04-30 14:41 39.01886 -79.15511 32168 ft 387 kts 272°
2026-04-30 14:42 39.02088 -79.18957 32424 ft 386 kts 273°
2026-04-30 14:42 39.02306 -79.22386 32683 ft 384 kts 273°
2026-04-30 14:42 39.02531 -79.25808 32856 ft 384 kts 273°
2026-04-30 14:42 39.02762 -79.29234 32995 ft 385 kts 273°
2026-04-30 14:43 39.02989 -79.32658 33200 ft 384 kts 273°
2026-04-30 14:43 39.03213 -79.36070 33488 ft 382 kts 273°
2026-04-30 14:43 39.03431 -79.39425 33737 ft 381 kts 273°
2026-04-30 14:43 39.03649 -79.42818 33948 ft 381 kts 273°
2026-04-30 14:44 39.04085 -79.49657 34069 ft 386 kts 273°
2026-04-30 14:44 39.04302 -79.53095 34270 ft 385 kts 273°
2026-04-30 14:44 39.04512 -79.56527 34459 ft 384 kts 272°
2026-04-30 14:45 39.04720 -79.59958 34572 ft 386 kts 273°
2026-04-30 14:45 39.04869 -79.62034 34580 ft 388 kts 274°